This is the latest recevied weather packets stored in our database for station/object IN3XSV-13. If no packets are shown the sender has not sent any weather packets the latest 10 day(s).
| Time | Temp. | Humidity | Pressure | Rain* | Wind** | Luminosity | Snow |
|---|---|---|---|---|---|---|---|
| 1777822433 | 23.33° C | 37% | 9955.4 hPa | 23.11 mm | - | - | - |
| 1777822133 | 23.33° C | 37% | 9955.3 hPa | 24.13 mm | - | - | - |
| 1777821833 | 23.33° C | 37% | 9955.4 hPa | 26.16 mm | - | - | - |
| 1777821533 | 23.33° C | 37% | 9955.4 hPa | 32.51 mm | - | - | - |
| 1777821233 | 22.78° C | 38% | 9955.5 hPa | 33.53 mm | - | - | - |
| 1777820933 | 22.78° C | 37% | 9955.6 hPa | 34.04 mm | - | - | - |
| 1777820633 | 22.78° C | 37% | 9955.6 hPa | 32 mm | - | - | - |
| 1777820333 | 22.78° C | 37% | 9955.7 hPa | 25.15 mm | - | - | - |
| 1777820033 | 22.78° C | 38% | 9955.7 hPa | 21.08 mm | - | - | - |
| 1777819733 | 22.78° C | 38% | 9955.7 hPa | 17.02 mm | - | - | - |
| 1777819433 | 22.78° C | 38% | 9955.6 hPa | 17.02 mm | - | - | - |
| 1777819133 | 22.78° C | 38% | 9955.5 hPa | 16 mm | - | - | - |
| 1777818833 | 22.78° C | 37% | 9955.6 hPa | 10.67 mm | - | - | - |
| 1777818533 | 23.33° C | 37% | 9955.6 hPa | 7.62 mm | - | - | - |
| 1777818233 | 23.33° C | 37% | 9955.5 hPa | 7.62 mm | - | - | - |
| 1777817933 | 23.33° C | 37% | 9955.5 hPa | 1.52 mm | - | - | - |
| 1777817633 | 23.33° C | 37% | 9955.5 hPa | 0 mm | - | - | - |
| 1777817333 | 23.89° C | 37% | 9955.6 hPa | 0 mm | - | - | - |
| 1777817033 | 23.89° C | 37% | 9955.6 hPa | 0 mm | - | - | - |
| 1777816733 | 23.89° C | 37% | 9955.6 hPa | 0 mm | - | - | - |
| 1777816433 | 23.89° C | 37% | 9955.6 hPa | 0 mm | - | - | - |
| 1777816133 | 24.44° C | 38% | 9955.4 hPa | 0 mm | - | - | - |
| 1777815833 | 23.89° C | 38% | 9955.5 hPa | 0 mm | - | - | - |
| 1777815533 | 23.89° C | 37% | 9955.4 hPa | 0 mm | - | - | - |
| 1777815233 | 24.44° C | 37% | 9955.4 hPa | 0 mm | - | - | - |
* Rain latest hour (hover to see other rain measurements)
** Current wind speed in m/s (hover to see current wind gust speed)